BLA8PZ LROP-LOWW

Flight info

Callsign BLA8PZ
Flight time 1h 19m
Altitude 38000
Route SOKRU DCT OXDOC DCT ULMIN DCT DEGET DCT ERGUZ DCT BALUX DCT TORNO DCT NATEX NATEX2W
Aircraft B738/M-SDE2E3FGHIRWXY/LB1

Departure

Time 2026-04-30 18:03
Airport Bucharest Henri Coandă International Airport (LROP)

Arrival

Time 2026-04-30 19:22
Airport Vienna International Airport (LOWW)
Time Latitude Longitude Altitude Speed Heading
2026-04-30 17:39 45.07061 25.09559 28680 ft 412 kts 301°
2026-04-30 17:42 44.57023 26.08195 314 ft 0 kts 354°
2026-04-30 17:55 44.56965 26.08192 313 ft 4 kts 19°
2026-04-30 17:56 44.56941 26.08165 314 ft 0 kts 84°
2026-04-30 17:58 44.56945 26.08215 315 ft 6 kts 84°
2026-04-30 17:59 44.57043 26.08384 313 ft 8 kts 355°
2026-04-30 18:00 44.57231 26.08439 315 ft 8 kts 82°
2026-04-30 18:00 44.57414 26.08476 321 ft 13 kts 354°
2026-04-30 18:01 44.57585 26.08451 325 ft 12 kts 354°
2026-04-30 18:02 44.57668 26.08493 326 ft 0 kts 83°
2026-04-30 18:02 44.57695 26.08829 320 ft 68 kts 83°
2026-04-30 18:03 44.57978 26.12712 1211 ft 151 kts 81°
2026-04-30 18:04 44.58355 26.17485 2606 ft 189 kts 78°
2026-04-30 18:05 44.63419 26.18012 4263 ft 267 kts 310°
2026-04-30 18:06 44.67248 26.08879 7260 ft 276 kts 303°
2026-04-30 18:07 44.71175 25.99531 10274 ft 282 kts 303°
2026-04-30 18:08 44.74451 25.91844 11321 ft 330 kts 303°
2026-04-30 18:09 44.79217 25.80636 14368 ft 337 kts 301°
2026-04-30 18:10 44.84038 25.68916 16991 ft 355 kts 298°
2026-04-30 18:11 44.89016 25.56542 19566 ft 368 kts 298°
2026-04-30 18:11 44.92835 25.47042 21406 ft 374 kts 298°
2026-04-30 18:12 44.96284 25.38443 22943 ft 381 kts 298°
2026-04-30 18:13 44.98909 25.31883 24027 ft 386 kts 298°
2026-04-30 18:13 45.02896 25.21881 25299 ft 393 kts 300°
2026-04-30 18:14 45.05592 25.15105 26122 ft 398 kts 300°
2026-04-30 18:15 45.09669 25.04823 27310 ft 404 kts 299°
2026-04-30 18:15 45.13819 24.94313 28408 ft 411 kts 300°
2026-04-30 18:16 45.16623 24.87193 29085 ft 416 kts 300°
2026-04-30 18:16 45.19450 24.79994 29768 ft 420 kts 300°
2026-04-30 18:17 45.20871 24.76368 30089 ft 422 kts 300°
2026-04-30 18:17 45.22298 24.72721 30400 ft 424 kts 300°
2026-04-30 18:17 45.25166 24.65379 31003 ft 426 kts 299°
2026-04-30 18:18 45.26599 24.61699 31425 ft 423 kts 300°
2026-04-30 18:18 45.28014 24.58064 31848 ft 421 kts 299°
2026-04-30 18:18 45.29431 24.54421 32165 ft 422 kts 299°
2026-04-30 18:18 45.30849 24.50768 32468 ft 422 kts 299°
2026-04-30 18:19 45.32268 24.47110 32832 ft 422 kts 299°
2026-04-30 18:19 45.33683 24.43456 33112 ft 423 kts 299°
2026-04-30 18:19 45.35104 24.39782 33420 ft 424 kts 298°
2026-04-30 18:19 45.36519 24.36119 33794 ft 422 kts 298°
2026-04-30 18:20 45.37930 24.32462 34156 ft 421 kts 298°
2026-04-30 18:20 45.39345 24.28787 34391 ft 423 kts 298°
2026-04-30 18:20 45.40758 24.25116 34596 ft 424 kts 298°
2026-04-30 18:20 45.42173 24.21432 34868 ft 423 kts 298°
2026-04-30 18:21 45.43565 24.17805 35139 ft 423 kts 298°
2026-04-30 18:21 45.44972 24.14132 35381 ft 423 kts 298°
2026-04-30 18:21 45.46381 24.10452 35617 ft 423 kts 298°
2026-04-30 18:21 45.47789 24.06767 35848 ft 423 kts 298°
2026-04-30 18:22 45.49196 24.03080 36092 ft 423 kts 298°
2026-04-30 18:22 45.52006 23.95702 36526 ft 424 kts 299°
2026-04-30 18:22 45.53410 23.92009 36767 ft 423 kts 299°
2026-04-30 18:23 45.54810 23.88319 37010 ft 423 kts 299°
2026-04-30 18:23 45.56212 23.84622 37228 ft 423 kts 299°
2026-04-30 18:23 45.57612 23.80924 37425 ft 423 kts 299°
2026-04-30 18:23 45.59013 23.77216 37651 ft 423 kts 299°
2026-04-30 18:24 45.61803 23.69822 38076 ft 423 kts 298°
2026-04-30 18:24 45.63199 23.66114 38269 ft 423 kts 298°
2026-04-30 18:25 45.65984 23.58705 38335 ft 427 kts 298°
2026-04-30 18:25 45.70161 23.47549 38323 ft 421 kts 298°
2026-04-30 18:26 45.74277 23.36513 38305 ft 417 kts 298°
2026-04-30 18:27 45.78361 23.25516 38324 ft 416 kts 298°
2026-04-30 18:28 45.82444 23.14482 38317 ft 419 kts 298°
2026-04-30 18:28 45.86556 23.03320 38309 ft 424 kts 298°
2026-04-30 18:29 45.92068 22.88288 38317 ft 429 kts 298°
2026-04-30 18:30 45.97637 22.73012 38314 ft 433 kts 298°
2026-04-30 18:31 46.01819 22.61487 38308 ft 433 kts 298°
2026-04-30 18:32 46.05964 22.50010 38306 ft 431 kts 298°
2026-04-30 18:33 46.10096 22.38523 38293 ft 429 kts 298°
2026-04-30 18:33 46.14193 22.27085 38295 ft 427 kts 298°
2026-04-30 18:34 46.18263 22.15673 38296 ft 425 kts 298°
2026-04-30 18:35 46.20961 22.08079 38291 ft 425 kts 298°
2026-04-30 18:35 46.23656 22.00474 38290 ft 425 kts 298°
2026-04-30 18:36 46.27679 21.89083 38297 ft 427 kts 298°
2026-04-30 18:37 46.31726 21.77572 38300 ft 429 kts 298°
2026-04-30 18:37 46.34423 21.69871 38295 ft 430 kts 298°
2026-04-30 18:38 46.37131 21.62118 38304 ft 431 kts 298°
2026-04-30 18:38 46.39840 21.54340 38302 ft 433 kts 298°
2026-04-30 18:39 46.42534 21.46582 38306 ft 434 kts 298°
2026-04-30 18:39 46.45245 21.38750 38294 ft 435 kts 298°
2026-04-30 18:40 46.47957 21.30895 38306 ft 435 kts 298°
2026-04-30 18:40 46.50736 21.23077 38312 ft 435 kts 301°
2026-04-30 18:41 46.53735 21.15442 38313 ft 435 kts 302°
2026-04-30 18:41 46.56764 21.07820 38315 ft 435 kts 301°
2026-04-30 18:42 46.59764 21.00178 38309 ft 435 kts 301°
2026-04-30 18:42 46.64235 20.88668 38323 ft 435 kts 301°
2026-04-30 18:45 46.80473 20.46397 38328 ft 435 kts 301°
2026-04-30 18:46 46.83418 20.38661 38332 ft 436 kts 301°
2026-04-30 18:46 46.86361 20.30906 38332 ft 436 kts 301°
2026-04-30 18:47 46.89304 20.23129 38331 ft 437 kts 301°
2026-04-30 18:47 46.92242 20.15344 38340 ft 437 kts 301°
2026-04-30 18:48 46.95179 20.07539 38341 ft 438 kts 301°
2026-04-30 18:48 46.98113 19.99720 38342 ft 438 kts 301°
2026-04-30 18:49 47.01040 19.91893 38347 ft 438 kts 301°
2026-04-30 18:49 47.03942 19.84116 38344 ft 438 kts 301°
2026-04-30 18:49 47.05416 19.80196 38169 ft 441 kts 302°
2026-04-30 18:50 47.06998 19.76339 37765 ft 440 kts 304°
2026-04-30 18:50 47.08628 19.72561 37333 ft 435 kts 305°
2026-04-30 18:50 47.10254 19.68852 36921 ft 430 kts 306°
2026-04-30 18:50 47.11866 19.65169 36534 ft 426 kts 306°
2026-04-30 18:51 47.13450 19.61524 36154 ft 422 kts 306°
2026-04-30 18:51 47.15012 19.57901 35761 ft 419 kts 305°
2026-04-30 18:51 47.16561 19.54288 35373 ft 416 kts 305°
2026-04-30 18:51 47.18092 19.50704 34983 ft 411 kts 305°
2026-04-30 18:52 47.19594 19.47178 34597 ft 403 kts 306°
2026-04-30 18:52 47.21069 19.43706 34189 ft 395 kts 306°
2026-04-30 18:52 47.22513 19.40306 33782 ft 390 kts 306°
2026-04-30 18:52 47.23945 19.36935 33387 ft 387 kts 306°
2026-04-30 18:53 47.25360 19.33598 33014 ft 383 kts 306°
2026-04-30 18:53 47.26767 19.30277 32647 ft 380 kts 306°
2026-04-30 18:53 47.28158 19.26991 32291 ft 377 kts 306°
2026-04-30 18:53 47.29543 19.23714 31936 ft 375 kts 306°
2026-04-30 18:54 47.30913 19.20470 31593 ft 372 kts 306°
2026-04-30 18:54 47.32256 19.17284 31248 ft 369 kts 306°
2026-04-30 18:54 47.33612 19.14062 30921 ft 367 kts 306°
2026-04-30 18:54 47.34867 19.10800 30582 ft 367 kts 301°
2026-04-30 18:55 47.35969 19.07411 30217 ft 365 kts 298°
2026-04-30 18:55 47.38029 19.00631 29482 ft 358 kts 298°
2026-04-30 18:55 47.39046 18.97289 29151 ft 354 kts 298°
2026-04-30 18:56 47.40724 18.91841 28581 ft 348 kts 299°
2026-04-30 18:56 47.41728 18.88608 28242 ft 345 kts 299°
2026-04-30 18:56 47.42724 18.85405 27916 ft 342 kts 299°
2026-04-30 18:57 47.45028 18.78009 27161 ft 340 kts 299°
2026-04-30 18:57 47.45698 18.75856 26940 ft 344 kts 299°
2026-04-30 18:57 47.46717 18.72588 26623 ft 355 kts 299°
2026-04-30 18:58 47.48778 18.65937 25895 ft 353 kts 299°
2026-04-30 18:58 47.49794 18.62643 25567 ft 350 kts 299°
2026-04-30 18:58 47.50790 18.59416 25237 ft 348 kts 299°
2026-04-30 18:59 47.52798 18.52909 24592 ft 343 kts 299°
2026-04-30 19:00 47.55368 18.43161 23668 ft 339 kts 292°
2026-04-30 19:00 47.56053 18.39835 23331 ft 336 kts 291°
2026-04-30 19:00 47.57398 18.33255 22691 ft 331 kts 292°
2026-04-30 19:01 47.58746 18.26778 22013 ft 326 kts 292°
2026-04-30 19:01 47.59416 18.23582 21710 ft 324 kts 292°
2026-04-30 19:02 47.60750 18.17247 21081 ft 320 kts 293°
2026-04-30 19:02 47.62070 18.10971 20464 ft 317 kts 293°
2026-04-30 19:03 47.63372 18.04770 19852 ft 313 kts 293°
2026-04-30 19:03 47.64649 17.98669 19253 ft 310 kts 293°
2026-04-30 19:04 47.65922 17.92571 18650 ft 308 kts 293°
2026-04-30 19:04 47.67179 17.86528 17988 ft 305 kts 293°
2026-04-30 19:05 47.68419 17.80550 17387 ft 301 kts 292°
2026-04-30 19:05 47.69638 17.74657 16792 ft 297 kts 292°
2026-04-30 19:06 47.70898 17.68849 16062 ft 295 kts 295°
2026-04-30 19:06 47.71626 17.65988 15608 ft 293 kts 296°
2026-04-30 19:06 47.73019 17.60592 15153 ft 275 kts 296°
2026-04-30 19:07 47.74378 17.55302 14323 ft 273 kts 296°
2026-04-30 19:07 47.75057 17.52637 13887 ft 272 kts 295°
2026-04-30 19:08 47.76376 17.47424 12972 ft 265 kts 295°
2026-04-30 19:08 47.77657 17.42336 11826 ft 263 kts 295°
2026-04-30 19:08 47.78294 17.39799 11306 ft 260 kts 295°
2026-04-30 19:09 47.79545 17.34802 10300 ft 255 kts 295°
2026-04-30 19:09 47.80160 17.32338 9761 ft 253 kts 294°
2026-04-30 19:09 47.80769 17.29901 9237 ft 250 kts 294°
2026-04-30 19:10 47.81975 17.25059 8419 ft 247 kts 294°
2026-04-30 19:10 47.83138 17.20377 7851 ft 234 kts 294°
2026-04-30 19:11 47.83696 17.18126 7598 ft 230 kts 294°
2026-04-30 19:11 47.84794 17.13698 7103 ft 229 kts 293°
2026-04-30 19:11 47.85339 17.11496 6841 ft 224 kts 294°
2026-04-30 19:12 47.85872 17.09338 6568 ft 219 kts 294°
2026-04-30 19:12 47.86390 17.07237 6303 ft 214 kts 294°
2026-04-30 19:12 47.86898 17.05179 6041 ft 210 kts 295°
2026-04-30 19:13 47.87880 17.01187 5530 ft 199 kts 295°
2026-04-30 19:13 47.88814 16.97389 5001 ft 192 kts 295°
2026-04-30 19:13 47.89272 16.95529 4732 ft 189 kts 295°
2026-04-30 19:14 47.89722 16.93696 4458 ft 187 kts 295°
2026-04-30 19:14 47.90163 16.91900 4218 ft 185 kts 295°
2026-04-30 19:14 47.90604 16.90103 3966 ft 184 kts 295°
2026-04-30 19:14 47.91040 16.88322 3706 ft 181 kts 295°
2026-04-30 19:15 47.91466 16.86577 3442 ft 176 kts 295°
2026-04-30 19:15 47.92287 16.83218 3014 ft 165 kts 295°
2026-04-30 19:15 47.92675 16.81627 3014 ft 165 kts 295°
2026-04-30 19:16 47.93070 16.80009 2992 ft 163 kts 295°
2026-04-30 19:16 47.93459 16.78418 2998 ft 164 kts 296°
2026-04-30 19:16 47.94240 16.75217 2997 ft 165 kts 295°
2026-04-30 19:17 47.94632 16.73606 2989 ft 165 kts 295°
2026-04-30 19:17 47.95405 16.70417 2985 ft 162 kts 295°
2026-04-30 19:17 47.95787 16.68843 2990 ft 161 kts 295°
2026-04-30 19:18 47.96420 16.66237 2997 ft 162 kts 295°
2026-04-30 19:18 47.97115 16.64402 2960 ft 142 kts 336°
2026-04-30 19:18 47.98050 16.64001 2850 ft 146 kts 345°
2026-04-30 19:19 47.98980 16.63380 2666 ft 143 kts 342°
2026-04-30 19:19 47.99898 16.62942 2484 ft 139 kts 347°
2026-04-30 19:19 48.01744 16.62155 2115 ft 138 kts 347°
2026-04-30 19:20 48.02677 16.61759 1920 ft 139 kts 347°
2026-04-30 19:20 48.03599 16.61368 1737 ft 138 kts 347°
2026-04-30 19:20 48.05484 16.60572 1326 ft 142 kts 346°
2026-04-30 19:21 48.06428 16.60162 1132 ft 142 kts 345°
2026-04-30 19:21 48.08313 16.59368 745 ft 138 kts 346°
2026-04-30 19:22 48.10012 16.58650 617 ft 99 kts 345°
2026-04-30 19:22 48.10798 16.58176 615 ft 19 kts 315°
2026-04-30 19:23 48.11027 16.57827 614 ft 12 kts 314°
2026-04-30 19:24 48.11162 16.57697 609 ft 16 kts 305°
2026-04-30 19:24 48.11214 16.57541 616 ft 17 kts 296°
2026-04-30 19:24 48.11313 16.57239 610 ft 16 kts 296°
2026-04-30 19:25 48.11473 16.56880 612 ft 14 kts 13°
2026-04-30 19:26 48.11597 16.56862 609 ft 5 kts 315°
2026-04-30 19:26 48.11661 16.56890 609 ft 5 kts 24°
2026-04-30 19:26 48.11670 16.56897 609 ft 0 kts 25°